CW2334 Weather Reports


Display with metric or nautical units.
time (UTC)temp
F
wind
direction
speed
MPH
gust
MPH
rain 1hr
in
rain 24hr
in
rain mn
in
humidity
%
barometer
mb
20260506095332 46 325 0.0 4.0 0.05 1.34 0.31 97 1006.3
20260506092332 45 325 0.0 0.0 0.05 1.31 0.28 97 1006.6
20260506085331 45 325 0.0 0.0 0.08 1.29 0.26 97 1006.0
20260506082331 45 325 0.0 0.0 0.08 1.26 0.23 97 1006.8
20260506072330 45 325 0.0 0.0 0.02 1.19 0.15 97 1006.2
20260506062330 46 325 0.0 0.0 0.08 1.17 0.13 97 1006.5
20260506042327 47 325 0.0 2.0 0.05 1.06 0.02 97 1007.6
20260506035327 49 325 0.0 1.0 0.10 1.04 0.00 97 1007.9
20260506032327 49 325 0.0 0.0 0.15 1.01 1.01 97 1008.2
20260506025326 49 325 0.0 4.0 0.17 0.94 0.94 97 1007.8
20260506022326 49 325 0.0 2.0 0.16 0.86 0.86 97 1007.4
20260506015325 49 325 0.0 0.0 0.11 0.77 0.77 97 1007.4
20260506012325 49 325 0.0 2.0 0.06 0.70 0.70 96 1007.1
20260506005325 49 325 0.0 0.0 0.03 0.66 0.66 96 1007.1
20260506002324 49 325 0.0 0.0 0.07 0.64 0.64 96 1006.7
20260505235324 49 325 0.0 1.0 0.18 0.63 0.63 96 1006.7
20260505232324 49 325 0.0 4.0 0.16 0.57 0.57 95 1006.7
20260505225323 49 319 0.0 4.0 0.10 0.45 0.45 95 1006.6
20260505222323 51 319 0.0 2.0 0.11 0.41 0.41 95 1006.9
20260505215322 51 319 0.0 5.0 0.24 0.35 0.35 94 1006.6
20260505212323 54 328 5.0 7.0 0.24 0.30 0.30 93 1006.9
20260505202321 57 267 0.0 1.0 0.03 0.06 0.06 92 1006.4
20260505195321 58 267 1.0 4.0 0.03 0.04 0.04 89 1006.5
20260505192320 61 267 0.0 4.0 0.02 0.03 0.03 84 1006.7
20260505185320 64 267 0.0 4.0 0.00 0.01 0.01 75 1006.7
20260505175319 66 329 6.0 8.0 0.00 0.01 0.01 68 1006.6
20260505172319 65 317 1.0 6.0 0.00 0.01 0.01 69 1006.4
20260505165318 67 308 0.0 7.0 0.00 0.01 0.01 64 1006.3
20260505122314 62 180 0.0 5.0 0.00 0.01 0.01 74 1004.8
20260505115314 62 155 2.0 6.0 0.00 0.01 0.01 75 1004.5
20260505112314 64 140 1.0 13.0 0.00 0.01 0.01 67 1004.2